MST,Max TemperatureF,Mean TemperatureF,Min TemperatureF,Max Dew PointF,MeanDew PointF,Min DewpointF,Max Humidity, Mean Humidity, Min Humidity, Max Sea Level PressureIn, Mean Sea Level PressureIn, Min Sea Level PressureIn, Max VisibilityMiles, Mean VisibilityMiles, Min VisibilityMiles, Max Wind SpeedMPH, Mean Wind SpeedMPH, Max Gust SpeedMPH,PrecipitationIn, CloudCover, Events, WindDirDegrees
2011-11-1,72,57,42,28,21,14,45,29,13,30.01,29.87,29.74,10,10,10,16,5,23,0.00,2,,177
2011-11-2,59,49,38,27,18,14,42,31,19,30.38,30.15,29.78,10,10,10,26,11,37,0.00,1,,356
2011-11-3,54,42,30,19,17,14,63,43,22,30.43,30.29,30.12,10,10,10,10,4,15,0.00,2,,168
2011-11-4,64,52,40,26,20,15,45,33,20,30.12,29.90,29.64,10,10,10,25,8,32,0.00,4,,133
2011-11-5,56,47,38,41,26,19,60,45,29,29.94,29.68,29.47,10,9,3,32,18,43,0.08,5,Rain,232
2011-11-6,52,41,29,28,23,20,78,54,30,30.06,29.97,29.93,10,10,10,14,4,17,0.00,5,,138
2011-11-7,55,45,35,36,27,22,76,52,28,29.95,29.88,29.76,10,10,7,33,8,40,0.01,5,Rain,253
2011-11-8,49,41,32,29,24,20,64,50,36,30.31,30.13,29.94,10,10,8,20,8,24,T,4,Snow,16
2011-11-9,51,41,30,24,22,19,72,50,28,30.50,30.42,30.31,10,10,10,13,5,15,0.00,1,,345
2011-11-10,53,40,27,23,18,11,69,44,19,30.55,30.40,30.25,10,10,10,7,3,9,0.00,1,,105
2011-11-11,50,41,32,20,17,14,56,39,22,30.22,30.09,29.94,10,10,10,13,4,15,0.00,8,,130
2011-11-12,65,52,39,29,23,18,44,32,20,29.95,29.87,29.77,10,10,10,24,9,32,0.00,6,,211
2011-11-13,55,50,44,38,32,26,56,47,38,29.86,29.83,29.78,10,10,10,21,9,31,T,6,Rain,210
2011-11-14,59,48,37,35,30,23,76,51,25,29.94,29.86,29.76,10,10,10,18,6,23,0.00,2,,237
2011-11-15,59,46,33,28,25,20,70,47,23,29.97,29.91,29.85,10,10,10,16,4,22,0.00,1,,336
2011-11-16,57,47,36,25,14,-1,59,35,10,30.25,30.10,29.93,10,10,10,22,7,26,0.00,3,,348
2011-11-17,56,43,30,23,17,9,58,38,18,30.30,30.16,29.98,10,10,10,14,6,16,0.00,0,,87
2011-11-18,63,49,35,27,21,12,64,39,14,29.98,29.86,29.75,10,10,10,16,6,21,0.00,3,,153
2011-11-19,61,51,40,24,21,18,45,32,19,29.90,29.82,29.73,10,10,10,14,7,17,0.00,6,,193
2011-11-20,63,55,47,31,25,19,46,33,20,30.01,29.94,29.88,10,10,9,18,7,29,T,5,Rain,179
2011-11-21,58,48,38,37,32,26,85,60,35,30.16,30.00,29.89,10,10,10,33,5,39,T,6,,351
2011-11-22,58,44,30,34,30,25,85,57,28,30.34,30.26,30.16,10,10,10,15,5,17,0.00,0,,281
2011-11-23,60,47,33,26,24,22,64,44,24,30.37,30.25,30.15,10,10,10,10,4,13,0.00,0,,6
2011-11-24,57,46,34,45,25,21,56,42,27,30.17,30.08,29.96,10,10,10,29,5,38,T,5,Rain,269
2011-11-25,55,50,44,45,36,22,80,59,37,30.01,29.90,29.81,10,10,8,29,15,37,0.04,6,Rain,293
2011-11-26,49,40,30,22,12,6,43,31,18,30.53,30.33,30.03,10,10,10,31,9,41,0.00,0,,355
2011-11-27,51,39,26,12,8,5,55,35,15,30.60,30.49,30.39,10,10,10,9,3,13,0.00,0,,334
2011-11-28,59,45,31,18,13,11,41,28,15,30.36,30.27,30.15,10,10,10,14,5,17,0.00,3,,5
2011-11-29,60,49,37,20,17,15,44,31,17,30.30,30.22,30.15,10,10,10,15,4,18,0.00,3,,4
2011-11-30,57,43,29,19,18,16,58,40,21,30.21,30.00,29.81,10,10,10,13,5,16,0.00,1,,163